Overview Statistics Trail Chart Weather Telemetry Raw packets
 

This is the latest recevied weather packets stored in our database for station/object WL7CLI. If no packets are shown the sender has not sent any weather packets the latest 10 day(s).

<< 70 71 72 73 74 75 76 >>
Time Temp. Humidity Pressure Rain* Wind** Luminosity Snow
1788029800 24.44° C 74% 1011.5 hPa 0.25 mm - - -
1788029706 24.44° C 74% 1011.4 hPa 0.25 mm - - -
1788028859 23.89° C 74% 1011.5 hPa 0.25 mm - - -
1788028600 23.89° C 74% 1011.5 hPa 0.25 mm - - -
1788028507 23.89° C 74% 1011.5 hPa 0.25 mm - - -
1788028084 23.33° C 76% 1012.8 hPa 0.25 mm - - -
1788027399 22.78° C 79% 1011.9 hPa 0.25 mm - - -
1788026283 21.67° C 82% 1013.5 hPa 0.25 mm - - -
1788026199 21.67° C 83% 1012.3 hPa 0.25 mm - - -
1788026115 21.67° C 84% 1012.4 hPa 0.25 mm - - -
1788025000 21.67° C 82% 1012.7 hPa 0 mm - - -
1788024907 21.67° C 82% 1012.7 hPa 0 mm - - -
1788024484 21.11° C 82% 1014 hPa 0 mm - - -
1788023799 21.11° C 83% 1013 hPa 0 mm - - -
1788023707 21.11° C 83% 1013 hPa 0 mm - - -
1788022684 20.56° C 85% 1014.3 hPa 0 mm - - -
1788022599 20.56° C 84% 1013.2 hPa 0 mm - - -
1788022507 20.56° C 85% 1013.2 hPa 0 mm - - -
1788021401 20.56° C 76% 1013.5 hPa 0 mm - - -
1788021304 20.56° C 76% 1013.5 hPa 0 mm - - -
1788020884 20.56° C 76% 1014.5 hPa 0 mm - - -
1788020332 20.56° C 76% 1013.5 hPa 0 mm - - -
1788020200 20.56° C 76% 1013.7 hPa 0 mm - - -
1788020103 20.56° C 76% 1013.5 hPa 0 mm - - -
1788019084 20.56° C 76% 1015.8 hPa 0 mm - - -

* Rain latest hour (hover to see other rain measurements)
** Current wind speed in m/s (hover to see current wind gust speed)